Weather History for Ashland, WI

Change the Weather History Date:

Monday, December 24, 2012

  Actual Average Record
Temperature  
Mean Temperature 11 °F -  
Max Temperature 16 °F 22 °F 42 °F (1953)
Min Temperature 6 °F 3 °F -22 °F (1951)
Degree Days  
Heating Degree Days 54    
Moisture  
Dew Point 6 °F    
Average Humidity 74    
Maximum Humidity 85    
Minimum Humidity 61    
Precipitation  
Precipitation 0.00 in - - ()
Sea Level Pressure  
Sea Level Pressure 30.14 in    
Wind  
Wind Speed 5 mph (WNW)    
Max Wind Speed 10 mph    
Max Gust Speed -    
Visibility 10 miles    
Events      
Averages and records for this station are not official NWS values.
T = Trace of Precipitation, MM = Missing Value Source: NWS Daily Summary

Daily Weather History Graph

Daily Weather History Graph

Search for Another Location

Airport:

Trip Planner

Search our weather history database for the weather conditions in past years. The results will help you decide how hot, cold, wet, or windy it might be!

Date:

Astronomy

Dec. 24, 2012 Rise Set
Actual Time 7:46 AM CST 4:20 PM CST
Civil Twilight 7:11 AM CST 4:56 PM CST
Nautical Twilight 6:32 AM CST 5:34 PM CST
Astronomical Twilight 5:55 AM CST 6:11 PM CST
Moon 1:52 PM CST (12/24) 4:19 AM CST (12/24)
Length of Visible Light 9h 44m
Length of Day
8h 34m
Waxing Gibbous, 88% of the Moon is Illuminated
Dec 24
Waxing Gibbous
Dec 28
Full
Jan 4
Last Quarter
Jan 11
New
Jan 18
First Quarter

Hourly Weather History & Observations

Time (CST) Temp. Windchill Dew Point Humidity Pressure Visibility Wind Dir Wind Speed Gust Speed Precip Events Conditions
12:53 AM 16.0 °F 8.8 °F 10.0 °F 77% 30.07 in 10.0 mi West 4.6 mph - N/A   Mostly Cloudy
1:53 AM 15.1 °F 7.7 °F 10.0 °F 80% 30.07 in 10.0 mi West 4.6 mph - N/A   Overcast
2:53 AM 16.0 °F 8.8 °F 10.0 °F 77% 30.07 in 10.0 mi West 4.6 mph - N/A   Overcast
3:53 AM 16.0 °F 10.4 °F 10.0 °F 77% 30.07 in 10.0 mi NW 3.5 mph - N/A   Overcast
4:53 AM 16.0 °F 6.3 °F 9.0 °F 74% 30.07 in 10.0 mi NW 6.9 mph - N/A   Overcast
5:53 AM 16.0 °F 10.4 °F 9.0 °F 74% 30.08 in 10.0 mi NW 3.5 mph - N/A   Overcast
6:53 AM 16.0 °F 10.4 °F 9.0 °F 74% 30.09 in 10.0 mi WNW 3.5 mph - N/A   Overcast
7:53 AM 15.1 °F 7.7 °F 8.1 °F 74% 30.09 in 10.0 mi NW 4.6 mph - N/A   Overcast
8:53 AM 14.0 °F 2.9 °F 7.0 °F 74% 30.09 in 10.0 mi WNW 8.1 mph - N/A   Overcast
9:53 AM 15.1 °F 5.2 °F 6.1 °F 68% 30.11 in 10.0 mi WNW 6.9 mph - N/A   Partly Cloudy
10:53 AM 14.0 °F 1.2 °F 5.0 °F 67% 30.12 in 10.0 mi NW 10.4 mph - N/A   Partly Cloudy
11:53 AM 16.0 °F 8.8 °F 6.1 °F 65% 30.12 in 10.0 mi Variable 4.6 mph - N/A   Partly Cloudy
12:53 PM 15.1 °F 5.2 °F 5.0 °F 64% 30.12 in 10.0 mi WNW 6.9 mph - N/A   Scattered Clouds
1:53 PM 15.1 °F 4.2 °F 3.9 °F 61% 30.13 in 10.0 mi NW 8.1 mph - N/A   Clear
2:53 PM 14.0 °F 3.9 °F 3.9 °F 64% 30.15 in 10.0 mi NW 6.9 mph - N/A   Clear
3:35 PM 12.2 °F 1.7 °F 5.0 °F 73% 30.11 in 10.0 mi NNW 6.9 mph - N/A   Mostly Cloudy
3:53 PM 12.9 °F 3.8 °F 5.0 °F 71% 30.17 in 10.0 mi NW 5.8 mph - N/A   Overcast
4:17 PM 10.4 °F - 3.2 °F 73% 30.11 in 10.0 mi Calm Calm - N/A   Scattered Clouds
4:31 PM 10.4 °F 4.0 °F 3.2 °F 73% 30.11 in 10.0 mi West 3.5 mph - N/A   Mostly Cloudy
4:53 PM 10.0 °F - 3.0 °F 73% 30.17 in 10.0 mi Calm Calm - N/A   Mostly Cloudy
5:02 PM 8.6 °F 2.0 °F 3.2 °F 79% 30.11 in 10.0 mi West 3.5 mph - N/A   Scattered Clouds
5:51 PM 8.6 °F 0.1 °F 3.2 °F 79% 30.12 in 10.0 mi SW 4.6 mph - N/A   Mostly Cloudy
5:53 PM 8.1 °F -0.5 °F 3.0 °F 80% 30.18 in 10.0 mi WSW 4.6 mph - N/A   Mostly Cloudy
6:02 PM 6.8 °F -3.5 °F 3.2 °F 85% 30.12 in 10.0 mi WSW 5.8 mph - N/A   Partly Cloudy
6:45 PM 10.4 °F 0.8 °F 3.2 °F 73% 30.14 in 10.0 mi West 5.8 mph - N/A   Mostly Cloudy
6:53 PM 10.9 °F 2.9 °F 5.0 °F 77% 30.20 in 10.0 mi West 4.6 mph - N/A   Mostly Cloudy
7:53 PM 12.0 °F 2.7 °F 6.1 °F 77% 30.22 in 10.0 mi West 5.8 mph - N/A   Overcast
8:53 PM 12.9 °F 3.8 °F 7.0 °F 77% 30.24 in 10.0 mi West 5.8 mph - N/A   Overcast
9:53 PM 12.0 °F 0.5 °F 6.1 °F 77% 30.25 in 10.0 mi WNW 8.1 mph - N/A   Overcast
10:53 PM 9.0 °F -0.9 °F 5.0 °F 84% 30.28 in 9.0 mi WSW 5.8 mph - N/A   Overcast
11:53 PM 9.0 °F -2.2 °F 3.9 °F 80% 30.30 in 9.0 mi West 6.9 mph - N/A   Overcast